Location: Br�goulou
(48.2102°N, 4.5358°W)
Time: 01:12:56
(UTC+00:00)

Daily predictions for brighter satellites

Satellite Brightness Start Highest point End
(mag) Time Altitude Azimuth Time Altitude Azimuth Time Altitude Azimuth
Cosmos 1943 Rocket 3.6 04:06:38 35° E 04:06:38 35° E 04:11:21 10° NE
CENTAUR R/B 3.1 04:16:08 51° ESE 04:16:08 51° ESE 04:22:46 10° NE
NOSS 3-2 (A) 3.7 04:27:49 61° ENE 04:27:49 61° ENE 04:33:20 10° NE
Cosmos 2278 Rocket 4.1 04:33:50 19° N 04:33:50 19° N 04:35:32 10° NNE
NOSS 3-2 (C) 4.1 04:33:35 43° SSE 04:34:37 48° ESE 04:40:41 10° NE
Meteor 2-3 Rocket 4.3 04:36:50 10° S 04:42:21 57° E 04:47:57 10° NNE
Cosmos 968 Rocket 4.5 04:42:38 24° SSE 04:45:20 44° ESE 04:50:13 10° NE
Cosmos 921 Rocket 4.0 04:50:35 45° E 04:50:35 45° E 04:54:22 10° SE
Meteor 1-26 Rocket 4.4 04:53:51 36° N 04:56:26 77° ENE 05:02:14 10° SSE
Cosmos 1812 4.2 04:56:57 35° E 04:56:57 35° E 05:00:19 10° SE
USA 238 DEB 3.6 05:00:11 44° SSW 05:02:29 80° SE 05:09:23 10° NE
USA 238 3.6 05:00:14 43° SSW 05:02:36 80° SE 05:09:29 10° NE
Cosmos 1151 Rocket 4.2 05:01:35 25° NNE 05:03:39 41° ENE 05:07:47 10° SE
Cosmos 2344 3.4 05:03:34 54° WSW 05:05:18 71° NW 05:13:19 10° NE
Cosmos 1816 Rocket 4.3 05:07:03 30° SSW 05:10:15 69° WNW 05:16:34 10° N
USA 215 3.2 05:04:24 10° ESE 05:10:57 84° NNE 05:13:03 47° NW
Cosmos 1782 4.5 05:15:55 24° S 05:15:55 24° S 05:17:34 10° S
Meteor 1-31 Rocket 4.1 05:10:31 10° NNE 05:14:12 39° E 05:17:52 10° SSE
SJ-12 4.3 05:15:34 10° NNE 05:19:41 64° ESE 05:23:47 10° S
FALCON 9 DEB 4.4 05:21:07 39° ENE 05:21:07 39° ENE 05:23:24 10° ENE
Cosmos 2369 Rocket 2.6 05:15:09 10° S 05:20:38 60° ESE 05:26:10 10° NNE
COSMO-SKYMED 1 2.5 05:20:15 10° SSE 05:24:35 83° ENE 05:25:48 47° N
H-2A R/B 2.7 05:23:57 10° NNE 05:27:40 77° ESE 05:31:25 10° S
Cosmos 1634 Rocket 3.9 05:23:06 10° NNW 05:29:24 78° W 05:35:37 10° S
Cosmos 1867 4.3 05:30:57 34° SW 05:30:57 34° SW 05:35:05 10° S
Cosmos 836 Rocket 4.5 05:27:51 31° NNW 05:30:25 84° ENE 05:35:39 10° SSE
Helios 1B 4.4 05:29:18 10° S 05:33:37 76° WSW 05:34:31 54° NW
Tsikada Rocket 4.0 05:32:00 10° SSW 05:38:04 55° WNW 05:44:15 10° N
CZ-4B R/B 4.4 05:39:15 10° E 05:40:51 13° ENE 05:42:27 10° NE
MOS 1-B Rocket 4.0 05:34:45 10° S 05:40:57 56° WSW 05:44:43 21° NNW
Gblst 52 Del rocket 4.4 05:41:33 37° W 05:44:10 77° NNW 05:51:06 10° ENE
Cosmos 1656 Rocket 3.9 05:38:57 10° SSW 05:44:17 67° ESE 05:49:42 10° NNE
SAR-Lupe-3 4.4 05:41:15 10° NNE 05:44:52 88° WNW 05:48:27 10° SSW
CZ-4C R/B 2.8 05:42:24 10° SSE 05:45:32 74° ENE 05:46:01 58° NNE
Cosmos 1943 Rocket 2.5 05:48:15 35° W 05:49:54 43° NW 05:55:19 10° NNE
CZ-2C R/B 2.6 05:44:37 10° S 05:50:04 61° W 05:54:54 13° NNW
Cosmos 1486 Rocket 3.9 05:47:11 10° SSW 05:52:30 84° WNW 05:57:49 10° NNE
SL-8 R/B 3.7 05:54:21 38° W 05:56:09 72° SSW 06:00:54 10° ESE
FALCON 9 DEB 3.6 05:56:51 37° N 05:56:51 37° N 05:59:12 10° ENE
Cosmos 1515 Rocket 4.2 05:52:22 10° N 05:56:42 56° ENE 06:00:58 10° SSE
Meteor 1-27 Rocket 4.4 05:54:04 10° N 05:59:37 55° ENE 06:05:13 10° SSE
Cosmos 2180 Rocket 4.4 05:53:25 10° N 05:59:38 90° NE 06:05:47 10° S
Iridium 2 3.8 05:58:25 10° SSW 06:02:05 48° W 06:05:47 10° N
FALCON 9 DEB 3.6 06:03:16 33° N 06:03:16 33° N 06:05:44 10° ENE
Cosmos 773 Rocket 4.3 05:58:38 10° NNW 06:03:50 66° ENE 06:08:59 10° SSE
FALCON 9 DEB 3.7 06:05:15 32° N 06:05:15 32° N 06:07:47 10° ENE
Cosmos 2297 4.3 06:03:07 26° W 06:05:23 35° NW 06:10:38 10° NNE
SJ 16-02 3.4 06:02:34 10° SSE 06:06:23 30° E 06:10:11 10° NE
CENTAUR R/B 3.0 06:03:21 24° W 06:06:53 46° NW 06:14:00 10° NE
NOAA 11 4.3 06:03:07 10° NNE 06:08:38 80° ESE 06:14:07 10° SSW
SKYMED 2 4.2 06:08:53 10° SSW 06:12:47 33° W 06:14:24 25° WNW
Cosmos 1340 Rocket 4.5 06:11:10 10° SSE 06:14:48 36° E 06:18:28 10° NNE
Envisat 3.3 06:09:58 10° N 06:14:48 44° WNW 06:19:35 10° SW
Cosmos 2278 Rocket 4.0 06:15:42 13° NNW 06:15:46 13° NNW 06:18:09 10° N
SL-27 R/B 2.8 06:14:04 13° NNW 06:17:09 66° ENE 06:20:41 10° SSE
Meteor 2-8 Rocket 4.4 06:11:26 10° NNW 06:17:32 67° W 06:23:34 10° S
NOSS 3-2 (A) 4.2 06:15:15 22° WNW 06:18:20 35° NNW 06:24:33 10° NE
Meteor 2-6 Rocket 4.3 06:13:15 10° NNW 06:18:29 50° W 06:23:39 10° SSW
Cosmos 1939 Rocket 3.7 06:16:25 10° NNE 06:20:18 51° E 06:24:05 10° S
Landsat 5 4.3 06:17:36 10° SSW 06:21:44 35° W 06:24:58 15° NW
FALCON 9 DEB 3.5 06:21:30 30° NW 06:22:08 34° N 06:24:50 10° ENE
Cosmos 2098 Rocket 3.5 06:19:10 10° SW 06:22:52 37° WNW 06:27:29 10° N
NOSS 3-2 (C) 3.8 06:21:05 16° WSW 06:25:35 44° NW 06:32:02 10° NE
Cosmos 968 Rocket 4.2 06:22:51 10° WSW 06:27:18 30° NW 06:31:48 10° N
Cosmos 921 Rocket 4.4 06:27:26 19° W 06:28:01 20° W 06:31:14 10° SW
Okean 3 Rocket 4.0 06:27:11 10° SSW 06:31:29 42° WNW 06:35:50 10° N
Cosmos 1812 4.1 06:32:03 19° W 06:32:16 19° W 06:35:03 10° SW
H-2A R/B 2.0 06:28:28 10° SSE 06:32:43 81° WSW 06:37:07 10° NNW
ATLAS 3B R/B 3.9 06:28:02 10° S 06:34:07 43° ESE 06:40:30 10° NE
Meteor 1-10 Rocket 4.3 06:29:21 10° NNW 06:34:44 51° W 06:40:04 10° S
SJ-7 4.5 06:31:48 10° N 06:35:57 57° WNW 06:40:02 10° SSW
ATLAS 5 CENTAUR R/B 3.0 06:34:26 10° S 06:37:58 38° ESE 06:41:56 10° NE
ADEOS 3.7 06:33:50 10° N 06:38:55 53° WNW 06:43:59 10° SW
Cosmos 158 Rocket 4.5 06:34:08 10° NNW 06:39:12 61° ENE 06:44:22 10° SE
Cosmos 1151 Rocket 4.3 06:38:29 14° NW 06:40:55 22° W 06:44:14 10° SW
Cosmos 1766 Rocket 4.4 06:40:51 10° SW 06:44:35 28° WNW 06:48:20 10° NNW
Cosmos 1354 Rocket 4.0 06:39:49 10° SW 06:45:02 63° WNW 06:50:20 10° NNE
Cosmos 1515 3.9 06:41:25 10° N 06:45:14 74° E 06:49:01 10° SSE
Meteor PRIRODA 3.8 06:42:47 10° N 06:46:18 47° WNW 06:49:47 10° SSW
CZ-2C R/B 2.9 06:42:30 10° N 06:47:17 62° WNW 06:52:14 10° SSW
Meteor 1-31 Rocket 4.0 06:45:25 10° NNW 06:48:20 20° WNW 06:51:15 10° WSW
NOSS 2 (A) 4.3 06:50:03 12° NW 06:52:37 73° NE 06:55:06 10° SE
USA 238 DEB 4.3 06:48:07 10° W 06:54:08 35° NNW 07:00:31 10° NE
USA 238 4.3 06:48:12 10° W 06:54:14 35° NNW 07:00:37 10° NE
USA 215 4.1 06:48:34 10° SSE 06:54:24 35° SW 07:00:17 10° WNW
FALCON 9 DEB 3.8 06:54:09 12° WNW 06:56:58 38° N 07:00:12 10° ENE
Cosmos 2297 Rocket 3.3 06:53:34 10° NNW 06:58:56 42° NE 07:04:16 10° ESE
SMAP 3.0 06:55:51 10° NNE 07:00:31 78° WNW 07:05:10 10° SSW
COSMO-SKYMED 1 4.5 06:59:52 10° WSW 07:01:21 11° W 07:02:49 10° WNW
FengYun 1-2 T 4.2 06:58:16 10° N 07:03:45 71° WNW 07:09:11 10° SSW
Cosmos 2369 Rocket 3.0 07:00:17 10° WSW 07:05:03 28° NW 07:09:52 10° NNE
CZ-4 R/B 4.3 07:03:48 10° NE 07:06:18 16° E 07:08:47 10° SE
CZ-2D R/B 3.4 07:03:03 10° NNE 07:06:53 81° ESE 07:10:40 10° S
Nadezhda 4 Rocket 4.2 07:05:25 10° SSW 07:11:22 49° WNW 07:17:25 10° N
CZ-4B R/B 3.5 07:08:53 10° N 07:11:59 28° WNW 07:15:04 10° SW
CZ-4B R/B 1.6 07:09:14 10° S 07:12:28 48° W 07:15:41 10° NNW
Cosmos 2228 Rocket 3.1 07:08:14 10° NNW 07:12:42 66° W 07:17:10 10° S
Cosmos 1538 Rocket 4.0 07:07:36 10° NNW 07:12:51 72° WSW 07:18:00 10° SSE
H-2A R/B 2.3 07:09:02 10° NNE 07:13:58 72° ESE 07:18:52 10° S
Cosmos 1607 4.1 07:09:04 10° NW 07:15:22 80° NE 07:21:32 10° SE
Lacrosse 4 Rocket 3.6 07:12:15 10° N 07:15:36 20° NE 07:18:58 10° E
